User: anonymous   Login
Location: Starry Hill Observatory
(46.8582°N, 122.3590°W)
Time: 09:24:08
(UTC-07:00)
Language:

Cosmos 1300 Rocket - Orbit

View from above orbital plane
View from above orbital plane
View from above satellite
View from above satellite

Ground track
Ground track

The orbit data is extracted from the following two-line orbital elements,

1 12786U 81082B   17080.92269512 +.00000095 +00000-0 +83845-5 0  9992
2 12786 082.4886 049.9459 0017551 177.9605 182.1686 14.84671566900768
Epoch (UTC): 21 March 2017 22:08:40
Eccentricity: 0.0017551
inclination: 82.4886°
perigee height: 602 km
apogee height: 627 km
right ascension of ascending node: 49.9459°
argument of perigee: 177.9605°
revolutions per day: 14.84671566
mean anomaly at epoch: 182.1686°
orbit number at epoch: 90076

The dashed part of the orbit path shows where the satellite is in the earth's shadow,  

DLR